Location: Aalsum
(53.3404°N, 6.0062°E)
Time: 03:58:57
(UTC+00:00)

Cosmos 1092 Rocket - Pass Details

Date: 28 January 2023
Orbit: 953 x 995 km, 83.0° (Epoch: 24 March)

Event Time Altitude Azimuth Distance (km) Brightness Sun altitude
Rises 16:43:48 0° 348° (NNW) 3,697 6.9 -5.2°
Reaches altitude 10° 16:46:20 10° 347° (NNW) 2,739 6.3 -5.5°
Maximum altitude 16:52:35 74° 264° (W) 1,012 4.3 -6.4°
Drops below altitude 10° 16:58:43 10° 180° (S) 2,692 6.6 -7.3°
Sets 17:01:12 0° 179° (S) 3,630 7.3 -7.6°
